sat.trackr.live / text

‹ back to catalog

STARLINK-36818

NORAD 67879 · 2026-035A

PAYLOAD ACTIVE UNKNOWN

§ Identity

Operator
Country
US
Launch date
2026-02-21
Launch site
AFWTR
Launch vehicle
Mass (kg)
RCS (m²)

Purposes: comms

External: N2YO · Heavens-Above · Gunter

§ Orbital elements

Epoch: 2026-09-19T00:53:20.982624Z

Period
93.91 min
Inclination
97.2842°
Eccentricity
0.0001704
Mean motion
15.33459130 rev/d
Perigee alt
464.3 km
Apogee alt
466.7 km
Semi-major
6,843.6 km
B*
4.7223e-4
RAAN
193.8277°
Arg perigee
98.5479°
Mean anomaly
261.5957°
Rev number
3,361

§ Raw data

STARLINK-368181 67879U 26035A   26262.03704841  .00015208  00000+0  47223-3 0  99942 67879  97.2842 193.8277 0001704  98.5479 261.5957 15.33459130 33614

JSON: /api/v1/satellites/67879 · /tle

For live sub-satellite position, see the globe view (requires WebGL).

§ Visibility from observer

Set your observer location to see the next 7 days of passes ≥ 10°. The values pass through the URL so the page stays shareable.

No JS? Fill the form by hand. The geolocation button needs JavaScript.